• In Hungary
  • List of Countries
  • For 7 days
  • Water Temperature
  • Satellite Maps
  • Weather Map
  • News
  • Weather Widgets
  • user-avatar
    Login

    Hourly Weather Novaya Krasavka

    Today, 20 June, Wednesday

    Time Temperature Precipitation Wind Pressure Humidity
    00:00 +19°C° 0.1 mm 2 mps 745 mmHg 84%
    01:00 +18°C° 0.1 mm 2 mps 745 mmHg 85%
    02:00 +18°C° 0.1 mm 2 mps 745 mmHg 87%
    03:00 +18°C° 0.1 mm 2 mps 745 mmHg 89%
    04:00 +18°C° 0 mm 2 mps 745 mmHg 87%
    05:00 +19°C° 0 mm 3 mps 745 mmHg 85%
    06:00 +20°C° 0 mm 3 mps 745 mmHg 83%
    07:00 +22°C° 0.1 mm 4 mps 745 mmHg 77%
    08:00 +23°C° 0.1 mm 5 mps 745 mmHg 72%
    09:00 +26°C° 0.1 mm 5 mps 745 mmHg 66%
    10:00 +27°C° 0.1 mm 6 mps 745 mmHg 64%
    11:00 +27°C° 0.1 mm 6 mps 744 mmHg 61%
    12:00 +28°C° 0.1 mm 7 mps 744 mmHg 59%
    13:00 +28°C° 0.3 mm 7 mps 744 mmHg 61%
    14:00 +28°C° 0.3 mm 7 mps 744 mmHg 62%
    15:00 +28°C° 0.3 mm 7 mps 743 mmHg 64%
    16:00 +27°C° 0.6 mm 7 mps 743 mmHg 69%
    17:00 +26°C° 0.6 mm 6 mps 743 mmHg 73%
    18:00 +25°C° 0.6 mm 5 mps 743 mmHg 77%
    19:00 +23°C° 0.1 mm 5 mps 744 mmHg 80%
    20:00 +21°C° 0.1 mm 4 mps 744 mmHg 83%
    21:00 +19°C° 0.1 mm 4 mps 744 mmHg 87%
    22:00 +18°C° 0 mm 4 mps 745 mmHg 87%
    23:00 +17°C° 0 mm 3 mps 745 mmHg 87%

    Tomorrow, 21 June, Thursday

    Time Temperature Precipitation Wind Pressure Humidity
    00:00 +16°C° 0 mm 3 mps 745 mmHg 87%
    01:00 +14°C° 0 mm 3 mps 745 mmHg 87%
    02:00 +13°C° 0 mm 3 mps 746 mmHg 87%
    03:00 +13°C° 0 mm 3 mps 746 mmHg 88%
    04:00 +14°C° 0 mm 3 mps 746 mmHg 85%
    05:00 +14°C° 0 mm 3 mps 746 mmHg 83%
    06:00 +15°C° 0 mm 4 mps 746 mmHg 81%
    07:00 +18°C° 0 mm 4 mps 747 mmHg 73%
    08:00 +20°C° 0 mm 4 mps 747 mmHg 65%
    09:00 +22°C° 0 mm 5 mps 747 mmHg 57%
    10:00 +22°C° 0 mm 5 mps 747 mmHg 55%
    11:00 +23°C° 0 mm 5 mps 747 mmHg 54%
    12:00 +25°C° 0 mm 5 mps 747 mmHg 52%
    13:00 +24°C° 0 mm 6 mps 746 mmHg 53%
    14:00 +24°C° 0 mm 6 mps 746 mmHg 54%
    15:00 +24°C° 0 mm 6 mps 746 mmHg 55%
    16:00 +25°C° 0 mm 5 mps 746 mmHg 58%
    17:00 +25°C° 0 mm 5 mps 746 mmHg 62%
    18:00 +23°C° 0 mm 4 mps 746 mmHg 66%
    19:00 +22°C° 0 mm 4 mps 746 mmHg 72%
    20:00 +20°C° 0 mm 3 mps 746 mmHg 78%
    21:00 +18°C° 0 mm 3 mps 747 mmHg 84%
    22:00 +18°C° 0 mm 2 mps 747 mmHg 85%
    23:00 +17°C° 0 mm 2 mps 747 mmHg 87%

    Day after tomorrow, 22 June, Friday

    Time Temperature Precipitation Wind Pressure Humidity
    00:00 +16°C° 0 mm 2 mps 747 mmHg 89%
    01:00 +16°C° 0 mm 2 mps 747 mmHg 89%
    02:00 +16°C° 0 mm 2 mps 748 mmHg 89%
    03:00 +15°C° 0 mm 2 mps 748 mmHg 90%
    04:00 +16°C° 0 mm 1 mps 748 mmHg 87%
    05:00 +18°C° 0 mm 1 mps 748 mmHg 84%
    06:00 +19°C° 0 mm 1 mps 748 mmHg 81%
    07:00 +21°C° 0 mm 1 mps 748 mmHg 75%
    08:00 +23°C° 0 mm 1 mps 748 mmHg 69%
    09:00 +24°C° 0 mm 1 mps 748 mmHg 63%
    10:00 +25°C° 0 mm 2 mps 748 mmHg 59%
    11:00 +26°C° 0 mm 2 mps 748 mmHg 55%
    12:00 +27°C° 0 mm 2 mps 748 mmHg 51%
    13:00 +28°C° 0 mm 2 mps 747 mmHg 50%
    14:00 +28°C° 0 mm 2 mps 747 mmHg 48%
    15:00 +29°C° 0 mm 1 mps 747 mmHg 46%
    16:00 +29°C° 0 mm 1 mps 747 mmHg 48%
    17:00 +28°C° 0 mm 1 mps 746 mmHg 51%
    18:00 +28°C° 0 mm 1 mps 746 mmHg 53%
    19:00 +26°C° 0 mm 1 mps 746 mmHg 57%
    20:00 +24°C° 0 mm 1 mps 746 mmHg 61%
    21:00 +22°C° 0 mm 1 mps 747 mmHg 65%
    22:00 +21°C° 0 mm 1 mps 747 mmHg 67%
    23:00 +21°C° 0 mm 1 mps 747 mmHg 68%

    23 June, Saturday

    Time Temperature Precipitation Wind Pressure Humidity
    00:00 +19°C° 0 mm 2 mps 747 mmHg 69%
    01:00 +19°C° 0 mm 2 mps 747 mmHg 70%
    02:00 +19°C° 0 mm 2 mps 747 mmHg 71%
    03:00 +18°C° 0 mm 2 mps 747 mmHg 71%
    04:00 +19°C° 0 mm 2 mps 747 mmHg 72%
    05:00 +20°C° 0 mm 3 mps 747 mmHg 73%
    06:00 +20°C° 0 mm 3 mps 747 mmHg 74%
    07:00 +22°C° 0 mm 3 mps 747 mmHg 69%
    08:00 +25°C° 0 mm 4 mps 747 mmHg 64%
    09:00 +27°C° 0 mm 4 mps 747 mmHg 59%
    10:00 +28°C° 0 mm 4 mps 747 mmHg 55%
    11:00 +29°C° 0 mm 4 mps 747 mmHg 51%
    12:00 +30°C° 0 mm 4 mps 746 mmHg 48%
    13:00 +30°C° 0 mm 4 mps 746 mmHg 47%
    14:00 +30°C° 0 mm 4 mps 746 mmHg 46%
    15:00 +32°C° 0 mm 4 mps 746 mmHg 45%
    16:00 +30°C° 0 mm 4 mps 745 mmHg 49%
    17:00 +30°C° 0 mm 3 mps 745 mmHg 52%
    18:00 +29°C° 0 mm 3 mps 745 mmHg 56%
    19:00 +27°C° 0 mm 3 mps 745 mmHg 58%
    20:00 +26°C° 0 mm 4 mps 745 mmHg 60%
    21:00 +23°C° 0 mm 4 mps 745 mmHg 62%
    22:00 +23°C° 0 mm 4 mps 745 mmHg 58%
    23:00 +23°C° 0 mm 5 mps 744 mmHg 55%

    24 June, Sunday

    Time Temperature Precipitation Wind Pressure Humidity
    00:00 +22°C° 0 mm 5 mps 744 mmHg 52%
    01:00 +22°C° 0 mm 5 mps 744 mmHg 50%
    02:00 +22°C° 0 mm 5 mps 744 mmHg 48%
    03:00 +22°C° 0 mm 5 mps 744 mmHg 45%
    04:00 +21°C° 0 mm 5 mps 744 mmHg 49%
    05:00 +21°C° 0 mm 5 mps 744 mmHg 52%
    06:00 +21°C° 0 mm 5 mps 744 mmHg 55%
    07:00 +22°C° 0 mm 5 mps 744 mmHg 55%
    08:00 +23°C° 0 mm 5 mps 745 mmHg 55%
    09:00 +25°C° 0 mm 4 mps 745 mmHg 55%
    10:00 +26°C° 0 mm 4 mps 745 mmHg 57%
    11:00 +26°C° 0 mm 3 mps 745 mmHg 60%
    12:00 +26°C° 0 mm 3 mps 746 mmHg 62%
    13:00 +26°C° 0.1 mm 3 mps 746 mmHg 63%
    14:00 +26°C° 0.1 mm 3 mps 746 mmHg 63%
    15:00 +26°C° 0.1 mm 3 mps 746 mmHg 64%
    16:00 +26°C° 0.2 mm 3 mps 746 mmHg 67%
    17:00 +25°C° 0.2 mm 2 mps 747 mmHg 70%
    18:00 +25°C° 0.2 mm 2 mps 747 mmHg 73%
    19:00 +23°C° 0 mm 2 mps 747 mmHg 79%
    20:00 +21°C° 0 mm 3 mps 747 mmHg 86%
    21:00 +19°C° 0 mm 3 mps 748 mmHg 92%
    22:00 +18°C° 0 mm 3 mps 748 mmHg 93%
    23:00 +18°C° 0 mm 3 mps 748 mmHg 94%

    25 June, Monday

    Time Temperature Precipitation Wind Pressure Humidity
    00:00 +17°C° 0 mm 3 mps 748 mmHg 95%
    01:00 +16°C° 0.1 mm 3 mps 748 mmHg 95%
    02:00 +16°C° 0.1 mm 3 mps 748 mmHg 95%
    03:00 +14°C° 0.1 mm 3 mps 748 mmHg 95%
    04:00 +16°C° 0 mm 3 mps 749 mmHg 91%
    05:00 +15°C° 0 mm 4 mps 749 mmHg 88%
    06:00 +17°C° 0 mm 4 mps 749 mmHg 85%
    07:00 +18°C° 0 mm 4 mps 749 mmHg 78%
    08:00 +20°C° 0 mm 4 mps 749 mmHg 72%
    09:00 +22°C° 0 mm 4 mps 749 mmHg 65%
    10:00 +23°C° 0 mm 4 mps 749 mmHg 61%
    11:00 +25°C° 0 mm 4 mps 749 mmHg 57%
    12:00 +26°C° 0 mm 4 mps 749 mmHg 53%
    13:00 +26°C° 0 mm 4 mps 749 mmHg 51%
    14:00 +26°C° 0 mm 4 mps 749 mmHg 50%
    15:00 +27°C° 0 mm 4 mps 748 mmHg 49%
    16:00 +26°C° 0 mm 3 mps 748 mmHg 53%
    17:00 +26°C° 0 mm 3 mps 748 mmHg 56%
    18:00 +25°C° 0 mm 3 mps 748 mmHg 59%
    19:00 +22°C° 0 mm 3 mps 748 mmHg 63%
    20:00 +20°C° 0 mm 3 mps 748 mmHg 67%
    21:00 +18°C° 0 mm 2 mps 749 mmHg 71%
    22:00 +18°C° 0 mm 3 mps 749 mmHg 74%
    23:00 +17°C° 0 mm 3 mps 749 mmHg 77%
    Show more